STARLINK-11678, 64326

Orbit data source: Space-Track

STARLINK-11678, 64326 is a payload satellite owned by SpaceX/Seattle (US) in LEO that was launched on Tue, 10 Jun 2025 UTC via an FALCON 9 launch vehicle from the Air Force Eastern Test Range (AFETR). Payload-class satellites include a variety of spacecraft equipped with specific instruments for various scientific and technological missions. These include communications satellites like Starlink; space stations such as the ISS; scientific satellites like the Hubble; Earth observation satellites from companies like Planet Labs, Umbra, and HawkEye 360; GPS; miniature CubeSats for education and research; and military/defense satellites.

Loading next visibility...
Identifier
64326, 2025-124K
Orbit
LEO
Country
Flag of USUS
Related business
Manufacturer
SpaceX/Seattle
Mission
Operational Commercial Communications
Bus & Motor
STARLINK V2MD, Unknown motor
Mass
960 kg wet, ~910 kg dry
Launch date (UTC)
2025-06-10 (11 months ago)
Launch vehicle
FALCON 9
Launch site
Air Force Eastern Test Range (AFETR)
Object type
Payload
Rocket body
Debris
Shape & HBR
Box + 2 Pan, 18.1 m
Radar Cross Section
36.964 m², Large (>1 m²)

Expand to show TLE details & history
Last TLE update: 10 hours ago

TLE from 10 hours ago
0 STARLINK-11678
1 64326U 25124K   26119.94328696  .00322815  00000-0  24036-2 0  9999
2 64326  43.0009  80.4150 0001581 227.5271 132.5463 15.71030067 50894
Epoch: 2026-04-29T22:38Z
TLE epoch observation values (Epoch: 2026-04-29T22:38:19.993Z)
Latitude
-0.00003°
Longitude
-117.06533°
Altitude
356.443 km
Speed
7.697 km/s
True Right ascension
05h 21m 39s
True Declination
0° 00' 00"
Sunlit
Object was in daylight at epoch
Visualization orbit readout
Latitude
Unknown
Longitude
Unknown
Altitude
Unknown
Speed
Unknown
Apparent Right ascension
Unknown
Apparent Declination
Unknown
Sunlit
N/A
Visualization observer readout
Local Sidereal Time
16:38:36
Azimuth
Unknown
Elevation
Unknown
Doppler factor
Unknown
Orbital elements
Apogee altitude
358.998 km
Perigee altitude
356.868 km
Semi-major axis
6,736.07 km
Eccentricity
0.00016
Inclination
43.0009°
RAAN
80.415°
Arg. of periapsis
227.5271°
True anomaly
132.55965°
Mean anomaly
132.5463°
Eccentric anomaly
132.55297°
Mean motion
3.92585 °/min
Orbital period
91.7 mins
BSTAR
0.0024036
Loading maneuver chart data...
Computing Atmospheric mass density...
Loading historical data...
Loading historical data...
Loading historical data...
Loading historical data...
Loading historical data...
Loading historical data...
Loading historical data...

Documentation

Showing up to 5 results
|